Location: ??????????
(44.2167°N, 135.5333°E)
Time: 14:49:47
(UTC+00:00)

Cosmos 2221 Rocket - Pass Details

Date: 15 June 2025
Orbit: 617 x 641 km, 82.5° (Epoch: 15 July)

Event Time Altitude Azimuth Distance (km) Brightness Sun altitude
Exits shadow 15:58:03 35° 132° (SE) 994 4.3 -21.1°
Maximum altitude 15:59:12 44° 93° (E) 864 4.3 -21.0°
Drops below altitude 10° 16:03:24 10° 21° (NNE) 1,999 7.4 -20.8°
Sets 16:05:43 0° 15° (NNE) 2,914 8.6 -20.7°
